Track ONEWEB-0254 now! 10-day predictions ONEWEB-0254 is classified as:
1 48972U 21060F 22144.55647629 -.00000060 00000-0 -19148-3 0 9990 2 48972 87.9107 164.2827 0001675 78.0839 282.0480 13.16592400 44236